Weather History for Sisseton, SD

Change the Weather History Date:

Friday, February 28, 2014

  Actual Average Record
Temperature  
Mean Temperature 9 °F 23 °F  
Max Temperature 19 °F 32 °F 66 °F (1932)
Min Temperature -2 °F 14 °F -25 °F (1962)
Degree Days  
Heating Degree Days 56 42  
Month to date heating degree days 1549 1313  
Since 1 July heating degree days 6817 6259  
Cooling Degree Days 0 0  
Month to date cooling degree days 0 0  
Year to date cooling degree days 0 0  
Moisture  
Dew Point -3 °F    
Average Humidity 68    
Maximum Humidity 79    
Minimum Humidity 56    
Precipitation  
Precipitation 0.00 in 0.02 in 0.85 in (1951)
Month to date precipitation 0.12 0.43  
Year to date precipitation 0.62 0.86  
Snow  
Snow 0.00 in - - ()
Month to date snowfall 1.7  
Since 1 July snowfall 21.9  
Snow Depth T in    
Sea Level Pressure  
Sea Level Pressure 30.07 in    
Wind  
Wind Speed 16 mph (North)    
Max Wind Speed 32 mph    
Max Gust Speed 38 mph    
T = Trace of Precipitation, MM = Missing Value Source: NWS Daily Summary

Daily Weather History Graph

Daily Weather History Graph

Search for Another Location

Airport:

Trip Planner

Search our weather history database for the weather conditions in past years. The results will help you decide how hot, cold, wet, or windy it might be!

Date:

Astronomy

Feb. 28, 2014 Rise Set
Actual Time 7:08 AM CST 6:13 PM CST
Civil Twilight 6:38 AM CST 6:43 PM CST
Nautical Twilight 6:04 AM CST 7:17 PM CST
Astronomical Twilight 5:29 AM CST 7:52 PM CST
Moon 6:24 AM CST (2/28) 5:52 PM CST (2/28)
Length of Visible Light 12h 05m
Length of Day
11h 05m
Waning Crescent, 1% of the Moon is Illuminated
Feb 28
Waning Crescent
Mar 1
New
Mar 8
First Quarter
Mar 16
Full
Mar 23
Last Quarter

Hourly Weather History & Observations

Time (CST) Temp. Windchill Dew Point Humidity Pressure Visibility Wind Dir Wind Speed Gust Speed Precip Events Conditions
12:56 AM -2.0 °F -20.5 °F -7.1 °F 79% 29.98 in - South 12.7 mph - N/A   Unknown
1:56 AM -0.9 °F -19.9 °F -7.1 °F 75% 29.93 in - South 13.8 mph - N/A   Unknown
2:56 AM -2.0 °F -20.5 °F -8.0 °F 76% 29.90 in - SSE 12.7 mph - N/A   Unknown
3:56 AM -2.0 °F -21.9 °F -8.0 °F 76% 29.86 in - South 15.0 mph - N/A   Unknown
4:56 AM -0.9 °F -19.1 °F -8.0 °F 72% 29.87 in - South 12.7 mph - N/A   Unknown
5:56 AM -0.9 °F -18.3 °F -8.0 °F 72% 29.87 in - South 11.5 mph - N/A   Unknown
6:56 AM -0.9 °F -18.3 °F -7.1 °F 75% 29.87 in - South 11.5 mph - N/A   Unknown
7:56 AM 1.0 °F -14.0 °F -6.0 °F 72% 29.90 in - SSE 9.2 mph - N/A   Unknown
8:56 AM 5.0 °F -9.1 °F -2.9 °F 70% 29.91 in - SSE 9.2 mph - N/A   Unknown
9:56 AM 14.0 °F - 1.9 °F 59% 29.90 in - Calm Calm - N/A   Unknown
10:56 AM 18.0 °F 2.6 °F 6.1 °F 60% 29.92 in - NNW 17.3 mph - N/A   Unknown
11:56 AM 19.0 °F 2.4 °F 7.0 °F 59% 29.95 in - NNW 21.9 mph 29.9 mph N/A   Unknown
12:56 PM 18.0 °F -0.5 °F 7.0 °F 62% 29.99 in - NNW 26.5 mph - N/A   Unknown
1:56 PM 18.0 °F 0.2 °F 5.0 °F 57% 30.02 in - North 24.2 mph 33.4 mph N/A   Unknown
2:56 PM 15.1 °F -4.0 °F 3.9 °F 61% 30.06 in - North 25.3 mph 32.2 mph N/A   Unknown
3:56 PM 12.9 °F -7.3 °F 1.9 °F 62% 30.12 in - NNW 26.5 mph 33.4 mph N/A   Unknown
4:56 PM 10.9 °F -9.6 °F -0.0 °F 61% 30.18 in - North 25.3 mph 34.5 mph N/A   Unknown
5:56 PM 8.1 °F -12.2 °F -2.0 °F 64% 30.22 in - North 21.9 mph - N/A   Unknown
6:56 PM 5.0 °F -14.7 °F -4.0 °F 66% 30.28 in - North 18.4 mph 25.3 mph N/A   Unknown
7:56 PM 3.0 °F -14.8 °F -5.1 °F 69% 30.30 in - North 13.8 mph - N/A   Unknown
8:56 PM 1.9 °F -19.2 °F -6.0 °F 69% 30.34 in - North 19.6 mph - N/A   Unknown
9:56 PM 1.0 °F -18.0 °F -7.1 °F 69% 30.38 in - North 15.0 mph - N/A   Unknown
10:56 PM -0.0 °F -21.3 °F -7.1 °F 72% 30.40 in - North 18.4 mph - N/A   Unknown
11:56 PM -2.0 °F -20.5 °F -8.0 °F 76% 30.44 in - NNE 12.7 mph - N/A   Unknown